Flag for U.S.A. Weather past 2 weeks in Babylon, New York, U.S.A.

Now
20 °F

Clear.


Feels Like: 12 °F
Forecast: 18 / 32 °F
Wind: 6 mph from Northwest

Location: Republic Airport

Current Time: Feb 1, 2015 at 12:00:57 AM

Latest Report: Jan 31, 2015 at 10:53 PM


Visibility: 10 mi

Pressure: 30.21 "Hg

Humidity: 52%

Dew point: 5 °F

Location of BabylonLocation

Historic Weather in Babylon — Graph

°F

Babylon temperature yesterday

Maximum temperature yesterday: 26 °F (at 3:53 PM)
Minimum temperature yesterday: 13 °F (at 5:53 AM)
Average temperature yesterday: 19 °F

Past Weeks' High & Low Weather Summary

 TemperatureHumidityPressure
High49 °F (Jan 18, 11:53 AM)100% (Jan 18, 1:02 PM)30.40 "Hg (Jan 18, 1:02 PM)
Low13 °F (Jan 31, 5:53 AM)30% (Jan 31, 2:53 PM)29.24 "Hg (Jan 24, 3:53 PM)
Average30 °F62%29.97 "Hg
* Reported Jan 16 10:53 PM — Jan 31 10:53 PM, Babylon, Weather by CustomWeather, © 2014

Note: Actual official high and low records may vary slightly from our data, if they occured in-between our weather recording intervals... More about our weather records

Advertising

Babylon weather history for previous 24 hours

 ConditionsComfort  
Time TempWeatherWind HumidityBarometerVisibility
10:53 PM
Jan 31
20 °FClear.6 mph52%30.21 "Hg10 mi
9:53 PM20 °FClear.9 mph50%30.20 "Hg10 mi
8:53 PM21 °FClear.8 mph45%30.19 "Hg10 mi
7:53 PM22 °FClear.13 mph42%30.18 "Hg10 mi
6:53 PM22 °FClear.9 mph42%30.15 "Hg10 mi
5:53 PM23 °FClear.16 mph38%30.13 "Hg10 mi
4:53 PM25 °FSunny.12 mph30%30.10 "Hg10 mi
3:53 PM26 °FSunny.14 mph31%30.08 "Hg10 mi
2:53 PM25 °FSunny.13 mph30%30.07 "Hg10 mi
1:53 PM24 °FSunny.16 mph35%30.06 "Hg10 mi
12:53 PM23 °FSunny.17 mph33%30.06 "Hg10 mi
11:53 AM20 °FSunny.22 mph38%30.09 "Hg10 mi
10:53 AM18 °FSunny.21 mph37%30.10 "Hg10 mi
9:53 AM16 °FSunny.18 mph38%30.09 "Hg10 mi
8:53 AM15 °FSunny.21 mph38%30.07 "Hg10 mi
7:53 AM13 °FSunny.16 mph42%30.06 "Hg10 mi
6:53 AM13 °FClear.18 mph42%30.04 "Hg10 mi
5:53 AM13 °FClear.14 mph44%30.03 "Hg10 mi
4:53 AM15 °FClear.20 mph42%30.03 "Hg10 mi
3:53 AM16 °FClear.21 mph45%30.01 "Hg10 mi
2:53 AM18 °FClear.18 mph45%29.99 "Hg10 mi
1:53 AM19 °FClear.14 mph52%29.98 "Hg10 mi
12:53 AM20 °FClear.17 mph52%29.97 "Hg10 mi
Weather by CustomWeather, © 2014

See weather overviewHow to use our weather pages